Moorhead, MN

11:39 AM CDT on June 29, 2017 (GMT -0500)
Moorhead Municipal

Weather History for KJKJ - May, 2014

Change the Weather History Date:

Friday, May 30, 2014

  Actual Average (KFAR) Record (KFAR)
Temperature  
Mean Temperature 78 °F -  
Max Temperature 91 °F 72 °F 104 °F (1934)
Min Temperature 64 °F 49 °F 29 °F (1947)
Cooling Degree Days 12    
Growing Degree Days 28 (Base 50)    
Moisture  
Dew Point 58 °F    
Average Humidity 61    
Maximum Humidity 100    
Minimum Humidity 26    
Precipitation  
Precipitation 0.15 in - - ()
Sea Level Pressure  
Sea Level Pressure 30.00 in    
Wind  
Wind Speed 10 mph (SSE)    
Max Wind Speed 29 mph    
Max Gust Speed 36 mph    
Visibility 10 miles    
Events Rain , Thunderstorm    
Averages and records for this station are not official NWS values.
T = Trace of Precipitation, MM = Missing Value Source: NWS Daily Summary

Daily Weather History Graph

Daily Weather History Graph

Search for Another Location

Airport or City:

Trip Planner

Search our weather history database for the weather conditions in past years. The results will help you decide how hot, cold, wet, or windy it might be!

Date:

Astronomy

May. 30, 2014 Rise Set
Actual Time 5:37 AM CDT 9:11 PM CDT
Civil Twilight 4:59 AM CDT 9:49 PM CDT
Nautical Twilight 4:08 AM CDT 10:40 PM CDT
Astronomical Twilight 3:00 AM CDT 11:49 PM CDT
Moon 7:26 AM CDT (5/30) 10:44 PM CDT (5/30)
Length of Visible Light 16h 50m
Length of Day
15h 34m
Waxing Crescent, 4% of the Moon is Illuminated
May 30
Waxing Crescent
Jun 5
First Quarter
Jun 12
Full
Jun 19
Last Quarter
Jun 27
New

Hourly Weather History & Observations

Time (CDT) Temp. Heat Index Dew Point Humidity Pressure Visibility Wind Dir Wind Speed Gust Speed Precip Events Conditions
12:15 AM 73.4 °F - 44.6 °F 36% 29.98 in 10.0 mi SSE 13.8 mph 17.3 mph N/A   Clear
12:34 AM 71.6 °F - 44.6 °F 38% 29.98 in 10.0 mi SSE 12.7 mph - N/A   Clear
12:55 AM 71.6 °F - 46.4 °F 41% 29.98 in 10.0 mi SSE 10.4 mph - N/A   Clear
1:15 AM 71.6 °F - 46.4 °F 41% 29.99 in 10.0 mi SSE 10.4 mph - N/A   Clear
1:34 AM 69.8 °F - 48.2 °F 46% 30.00 in 10.0 mi SSE 9.2 mph - N/A   Clear
1:55 AM 71.6 °F - 46.4 °F 41% 30.00 in 10.0 mi SSE 10.4 mph - N/A   Clear
2:15 AM 71.6 °F - 46.4 °F 41% 30.01 in 10.0 mi South 9.2 mph - N/A   Clear
2:35 AM 69.8 °F - 46.4 °F 43% 30.01 in 10.0 mi South 8.1 mph - N/A   Clear
2:55 AM 69.8 °F - 46.4 °F 43% 30.02 in 10.0 mi South 5.8 mph - N/A   Clear
3:14 AM 69.8 °F - 48.2 °F 46% 30.02 in 10.0 mi South 5.8 mph - N/A   Clear
3:35 AM 68.0 °F - 48.2 °F 49% 30.03 in 10.0 mi South 4.6 mph - N/A   Clear
3:55 AM 69.8 °F - 46.4 °F 43% 30.04 in 10.0 mi South 5.8 mph - N/A   Clear
4:14 AM 68.0 °F - 48.2 °F 49% 30.04 in 10.0 mi South 4.6 mph - N/A   Clear
4:35 AM 66.2 °F - 48.2 °F 52% 30.04 in 10.0 mi SSE 5.8 mph - N/A   Scattered Clouds
4:54 AM 64.4 °F - 51.8 °F 64% 30.04 in 10.0 mi South 4.6 mph - N/A   Clear
5:15 AM 66.2 °F - 51.8 °F 60% 30.04 in 10.0 mi SSE 5.8 mph - N/A   Clear
5:35 AM 66.2 °F - 50.0 °F 56% 30.04 in 10.0 mi SSE 8.1 mph - N/A   Scattered Clouds
5:54 AM 66.2 °F - 51.8 °F 60% 30.04 in 10.0 mi SSE 6.9 mph - N/A   Mostly Cloudy
6:35 AM 66.2 °F - 51.8 °F 60% 30.03 in 10.0 mi South 6.9 mph - N/A   Clear
6:55 AM 68.0 °F - 53.6 °F 60% 30.03 in 10.0 mi SSE 9.2 mph - N/A   Clear
7:15 AM 69.8 °F - 53.6 °F 56% 30.04 in 10.0 mi South 6.9 mph - N/A   Clear
7:35 AM 71.6 °F - 53.6 °F 53% 30.03 in 10.0 mi South 13.8 mph - N/A   Clear
7:55 AM 71.6 °F - 55.4 °F 57% 30.03 in 10.0 mi South 12.7 mph 17.3 mph N/A   Clear
8:15 AM 73.4 °F - 55.4 °F 53% 30.03 in 10.0 mi South 13.8 mph 17.3 mph N/A   Clear
8:34 AM 73.4 °F - 55.4 °F 53% 30.03 in 10.0 mi South 10.4 mph - N/A   Clear
8:55 AM 73.4 °F - 55.4 °F 53% 30.03 in 10.0 mi South 8.1 mph - N/A   Clear
9:15 AM 75.2 °F - 57.2 °F 53% 30.04 in 10.0 mi South 8.1 mph - N/A   Clear
9:34 AM 77.0 °F - 57.2 °F 50% 30.04 in 10.0 mi South 6.9 mph - N/A   Clear
9:55 AM 78.8 °F - 57.2 °F 47% 30.03 in 10.0 mi South 5.8 mph - N/A   Clear
10:15 AM 80.6 °F 80.8 °F 57.2 °F 45% 30.03 in 10.0 mi South 5.8 mph - N/A   Clear
10:34 AM 82.4 °F 82.0 °F 57.2 °F 42% 30.02 in 10.0 mi South 6.9 mph - N/A   Clear
10:55 AM 82.4 °F 82.9 °F 60.8 °F 48% 30.02 in 10.0 mi South 9.2 mph - N/A   Clear
11:14 AM 84.2 °F 84.4 °F 60.8 °F 45% 30.02 in 10.0 mi South 10.4 mph - N/A   Clear
11:35 AM 84.2 °F 84.4 °F 60.8 °F 45% 30.02 in 10.0 mi South 6.9 mph - N/A   Clear
11:54 AM 84.2 °F 84.4 °F 60.8 °F 45% 30.02 in 10.0 mi South 9.2 mph - N/A   Clear
12:15 PM 86.0 °F 86.1 °F 60.8 °F 43% 30.01 in 10.0 mi SSW 9.2 mph 16.1 mph N/A   Clear
12:35 PM 87.8 °F 87.1 °F 59.0 °F 38% 30.01 in 10.0 mi South 12.7 mph 18.4 mph N/A   Scattered Clouds
1:15 PM 86.0 °F 85.4 °F 59.0 °F 40% 30.00 in 10.0 mi SSW 8.1 mph 17.3 mph N/A   Scattered Clouds
1:35 PM 86.0 °F 85.4 °F 59.0 °F 40% 30.00 in 10.0 mi South 8.1 mph - N/A   Scattered Clouds
1:54 PM 87.8 °F 86.5 °F 57.2 °F 35% 29.99 in 10.0 mi SSW 11.5 mph 16.1 mph N/A   Scattered Clouds
2:15 PM 89.6 °F 87.7 °F 55.4 °F 31% 29.98 in 10.0 mi South 12.7 mph 17.3 mph N/A   Clear
2:35 PM 89.6 °F 87.3 °F 53.6 °F 29% 29.97 in 10.0 mi South 12.7 mph 19.6 mph N/A   Scattered Clouds
2:54 PM 89.6 °F 87.3 °F 53.6 °F 29% 29.96 in 10.0 mi South 12.7 mph 19.6 mph N/A   Scattered Clouds
3:55 PM 89.6 °F - 50.0 °F 26% 29.95 in 10.0 mi South 10.4 mph - N/A   Clear
4:15 PM 89.6 °F - 50.0 °F 26% 29.94 in 10.0 mi South 13.8 mph 24.2 mph N/A   Scattered Clouds
4:34 PM 91.4 °F - 51.8 °F 26% 29.94 in 10.0 mi SSW 17.3 mph 20.7 mph N/A   Scattered Clouds
5:14 PM 89.6 °F 87.7 °F 55.4 °F 31% 29.93 in 10.0 mi SW 10.4 mph - N/A   Scattered Clouds
5:35 PM 75.2 °F - 68.0 °F 78% 29.92 in 10.0 mi North 28.8 mph 35.7 mph 0.04 in Rain Rain
5:55 PM 73.4 °F - 69.8 °F 88% 29.95 in 10.0 mi North 12.7 mph 26.5 mph 0.04 in Rain , Thunderstorm Light Thunderstorms and Rain
6:14 PM 73.4 °F - 71.6 °F 94% 29.95 in 10.0 mi ENE 12.7 mph - 0.01 in   Scattered Clouds
6:35 PM 71.6 °F - 71.6 °F 100% 29.95 in 7.0 mi NE 13.8 mph - 0.05 in Rain Rain
6:55 PM 71.6 °F - 71.6 °F 100% 29.95 in 7.0 mi NE 11.5 mph - 0.07 in   Scattered Clouds
7:14 PM 71.6 °F - 71.6 °F 100% 29.96 in 10.0 mi NNE 10.4 mph - N/A Rain Light Rain
7:35 PM 71.6 °F - 71.6 °F 100% 29.95 in 10.0 mi East 5.8 mph - 0.01 in   Mostly Cloudy
7:54 PM 71.6 °F - 71.6 °F 100% 29.99 in 10.0 mi WNW 12.7 mph - 0.01 in Rain Light Rain
8:15 PM 69.8 °F - 69.8 °F 100% 29.98 in 7.0 mi North 23.0 mph - 0.03 in Rain , Thunderstorm Heavy Thunderstorms and Rain
8:35 PM 69.8 °F - 69.8 °F 100% 30.01 in 10.0 mi North 17.3 mph 27.6 mph 0.03 in   Scattered Clouds
8:54 PM 69.8 °F - 69.8 °F 100% 29.99 in 10.0 mi North 18.4 mph 25.3 mph 0.03 in   Scattered Clouds
9:15 PM 69.8 °F - 69.8 °F 100% 30.00 in 10.0 mi NE 15.0 mph - N/A   Clear
9:35 PM 69.8 °F - 69.8 °F 100% 30.01 in 10.0 mi NE 12.7 mph 19.6 mph N/A   Clear
9:55 PM 69.8 °F - 69.8 °F 100% 30.02 in 7.0 mi ENE 12.7 mph - N/A   Scattered Clouds
10:15 PM 68.0 °F - 68.0 °F 100% 30.01 in 7.0 mi NE 10.4 mph - N/A   Scattered Clouds
10:34 PM 68.0 °F - 68.0 °F 100% 30.01 in 10.0 mi ENE 10.4 mph - N/A   Scattered Clouds
10:55 PM 68.0 °F - 68.0 °F 100% 30.02 in 10.0 mi ENE 8.1 mph - N/A   Clear
11:15 PM 66.2 °F - 66.2 °F 100% 30.00 in 10.0 mi ENE 8.1 mph - N/A   Clear
11:34 PM 66.2 °F - 66.2 °F 100% 30.00 in 7.0 mi ENE 5.8 mph - N/A   Clear
11:55 PM 66.2 °F - 66.2 °F 100% 29.98 in 7.0 mi ENE 6.9 mph - N/A   Clear